La Grange, TX

12:47 PM CDT on October 23, 2017 (GMT -0500)
La Grange

Weather History for K3T5 - August, 2013

Change the Weather History Date:

Tuesday, August 20, 2013

  Actual Average (KAUS) Record (KAUS)
Temperature  
Mean Temperature 82 °F -  
Max Temperature 92 °F 93 °F 105 °F (1999)
Min Temperature 72 °F 70 °F 67 °F (2013)
Cooling Degree Days 17    
Growing Degree Days 32 (Base 50)    
Moisture  
Dew Point 73 °F    
Average Humidity 76    
Maximum Humidity 93    
Minimum Humidity 45    
Precipitation  
Precipitation 0.00 in - - ()
Sea Level Pressure  
Sea Level Pressure 29.98 in    
Wind  
Wind Speed 3 mph (SSE)    
Max Wind Speed 15 mph    
Max Gust Speed 22 mph    
Visibility 10 miles    
Events      
Averages and records for this station are not official NWS values.
T = Trace of Precipitation, MM = Missing Value Source: NWS Daily Summary

Daily Weather History Graph

Daily Weather History Graph

Search for Another Location

Airport or City:

Trip Planner

Search our weather history database for the weather conditions in past years. The results will help you decide how hot, cold, wet, or windy it might be!

Date:

Astronomy

Aug. 20, 2013 Rise Set
Actual Time 6:58 AM CDT 8:03 PM CDT
Civil Twilight 6:33 AM CDT 8:28 PM CDT
Nautical Twilight 6:04 AM CDT 8:57 PM CDT
Astronomical Twilight 5:33 AM CDT 9:27 PM CDT
Moon 7:40 PM CDT (8/20) 6:27 AM CDT (8/20)
Length of Visible Light 13h 54m
Length of Day
13h 04m
Full, 100% of the Moon is Illuminated
Aug 20
Full
Aug 20
Full
Aug 28
Last Quarter
Sep 5
New
Sep 12
First Quarter

Hourly Weather History & Observations

Time (CDT) Temp. Heat Index Dew Point Humidity Pressure Visibility Wind Dir Wind Speed Gust Speed Precip Events Conditions
12:15 AM 79.2 °F - 68.4 °F 69% 29.96 in 10.0 mi South 3.5 mph - N/A   Clear
12:35 AM 78.8 °F - 68.5 °F 71% 29.97 in 10.0 mi Calm Calm - N/A   Clear
12:55 AM 78.4 °F - 69.6 °F 74% 29.97 in 10.0 mi Calm Calm - N/A   Clear
1:15 AM 77.5 °F - 69.6 °F 76% 29.97 in 10.0 mi Calm Calm - N/A   Clear
1:35 AM 77.0 °F - 70.0 °F 79% 29.97 in 10.0 mi Calm Calm - N/A   Clear
1:55 AM 76.3 °F - 70.0 °F 81% 29.96 in 10.0 mi Calm Calm - N/A   Clear
2:15 AM 76.3 °F - 70.7 °F 83% 29.96 in 10.0 mi Calm Calm - N/A   Clear
2:35 AM 74.8 °F - 70.7 °F 87% 29.96 in 10.0 mi Calm Calm - N/A   Clear
2:55 AM 75.4 °F - 71.2 °F 87% 29.96 in 10.0 mi Calm Calm - N/A   Clear
3:15 AM 73.8 °F - 71.4 °F 92% 29.96 in 10.0 mi Calm Calm - N/A   Clear
3:35 AM 73.6 °F - 70.9 °F 91% 29.96 in 10.0 mi Calm Calm - N/A   Clear
3:55 AM 73.6 °F - 70.7 °F 91% 29.96 in 10.0 mi Calm Calm - N/A   Clear
4:15 AM 73.6 °F - 70.9 °F 91% 29.96 in 10.0 mi Calm Calm - N/A   Clear
4:35 AM 73.4 °F - 70.7 °F 91% 29.96 in 10.0 mi Calm Calm - N/A   Clear
4:55 AM 73.6 °F - 70.9 °F 91% 29.96 in 10.0 mi Calm Calm - N/A   Clear
5:15 AM 72.5 °F - 70.0 °F 92% 29.96 in 10.0 mi Calm Calm - N/A   Clear
5:35 AM 72.5 °F - 70.0 °F 92% 29.97 in 10.0 mi Calm Calm - N/A   Clear
5:55 AM 72.5 °F - 69.8 °F 91% 29.97 in 10.0 mi Calm Calm - N/A   Clear
6:15 AM 72.1 °F - 70.0 °F 93% 29.97 in 10.0 mi Calm Calm - N/A   Mostly Cloudy
6:35 AM 72.5 °F - 70.0 °F 92% 29.98 in 10.0 mi Calm Calm - N/A   Overcast
6:55 AM 73.6 °F - 70.3 °F 90% 29.98 in 10.0 mi Calm Calm - N/A   Overcast
7:15 AM 73.6 °F - 70.7 °F 91% 29.98 in 10.0 mi Calm Calm - N/A   Mostly Cloudy
7:35 AM 73.0 °F - 70.2 °F 91% 29.99 in 10.0 mi Calm Calm - N/A   Mostly Cloudy
7:55 AM 73.6 °F - 70.9 °F 91% 29.99 in 10.0 mi Calm Calm - N/A   Mostly Cloudy
8:15 AM 75.4 °F - 72.1 °F 90% 30.00 in 10.0 mi Calm Calm - N/A   Scattered Clouds
8:35 AM 76.6 °F - 73.4 °F 90% 30.01 in 10.0 mi Calm Calm - N/A   Scattered Clouds
8:55 AM 78.8 °F - 74.8 °F 88% 30.00 in 10.0 mi Calm Calm - N/A   Clear
9:15 AM 80.1 °F 85.2 °F 75.6 °F 86% 30.01 in 10.0 mi Calm Calm - N/A   Clear
9:35 AM 82.0 °F 90.2 °F 77.0 °F 85% 30.01 in 10.0 mi Calm Calm - N/A   Clear
9:55 AM 83.1 °F 91.9 °F 76.6 °F 81% 30.01 in 10.0 mi Calm Calm - N/A   Scattered Clouds
10:15 AM 83.8 °F 92.8 °F 76.3 °F 78% 30.01 in 10.0 mi ENE 3.5 mph - N/A   Scattered Clouds
10:35 AM 86.0 °F 96.0 °F 76.1 °F 72% 30.02 in 10.0 mi SE 4.6 mph - N/A   Scattered Clouds
10:55 AM 87.1 °F 95.4 °F 74.1 °F 65% 30.02 in 10.0 mi East 6.9 mph - N/A   Scattered Clouds
11:15 AM 87.4 °F 95.3 °F 73.4 °F 63% 30.02 in 10.0 mi ESE 5.8 mph - N/A   Clear
11:35 AM 88.5 °F 96.8 °F 73.4 °F 61% 30.01 in 10.0 mi ESE 5.8 mph - N/A   Scattered Clouds
11:55 AM 90.7 °F 96.9 °F 70.9 °F 52% 30.01 in 10.0 mi ESE 5.8 mph - N/A   Clear
12:15 PM 91.2 °F 97.5 °F 70.5 °F 51% 30.00 in 10.0 mi ESE 3.5 mph - N/A   Scattered Clouds
12:35 PM 91.4 °F 96.3 °F 69.3 °F 48% 30.00 in 10.0 mi SE 6.9 mph - N/A   Scattered Clouds
12:55 PM 92.1 °F 97.7 °F 70.0 °F 48% 30.00 in 10.0 mi SE 5.8 mph - N/A   Scattered Clouds
1:15 PM 92.3 °F 96.5 °F 68.0 °F 45% 30.00 in 10.0 mi ENE 5.8 mph - N/A   Clear
1:35 PM 87.3 °F 96.8 °F 75.0 °F 67% 30.00 in 10.0 mi SSE 15.0 mph 21.9 mph N/A   Scattered Clouds
1:55 PM 86.7 °F 95.9 °F 75.2 °F 68% 30.00 in 10.0 mi South 15.0 mph 21.9 mph N/A   Scattered Clouds
2:15 PM 86.9 °F 96.4 °F 75.2 °F 68% 30.00 in 10.0 mi SSE 15.0 mph 20.7 mph N/A   Clear
2:35 PM 86.9 °F 96.4 °F 75.4 °F 68% 29.99 in 10.0 mi South 12.7 mph - N/A   Clear
2:55 PM 88.0 °F 98.5 °F 75.9 °F 67% 29.99 in 10.0 mi South 13.8 mph 18.4 mph N/A   Clear
3:15 PM 88.9 °F 99.7 °F 75.6 °F 65% 29.98 in 10.0 mi South 11.5 mph - N/A   Clear
3:35 PM 89.2 °F 100.1 °F 75.6 °F 64% 29.97 in 10.0 mi South 13.8 mph - N/A   Clear
3:55 PM 88.5 °F 99.9 °F 76.1 °F 67% 29.97 in 10.0 mi South 9.2 mph 17.3 mph N/A   Clear
4:15 PM 90.5 °F 102.1 °F 76.1 °F 62% 29.96 in 10.0 mi SSE 10.4 mph - N/A   Clear
4:35 PM 90.5 °F 101.5 °F 75.2 °F 61% 29.96 in 10.0 mi ESE 6.9 mph - N/A   Clear
4:55 PM 89.8 °F 99.2 °F 74.1 °F 60% 29.95 in 10.0 mi South 9.2 mph - N/A   Clear
5:15 PM 89.2 °F 99.0 °F 74.5 °F 62% 29.95 in 10.0 mi SSE 5.8 mph - N/A   Clear
5:35 PM 89.2 °F 98.4 °F 74.3 °F 61% 29.95 in 10.0 mi SE 6.9 mph - N/A   Clear
5:55 PM 89.1 °F 97.5 °F 73.8 °F 60% 29.95 in 10.0 mi SSE 6.9 mph - N/A   Clear
6:15 PM 88.5 °F 96.8 °F 73.8 °F 61% 29.95 in 10.0 mi SSE 6.9 mph - N/A   Clear
6:35 PM 88.3 °F 97.4 °F 74.1 °F 63% 29.95 in 10.0 mi SE 8.1 mph - N/A   Clear
6:55 PM 87.8 °F 96.1 °F 73.9 °F 63% 29.95 in 10.0 mi SSE 8.1 mph - N/A   Clear
7:15 PM 86.9 °F 94.5 °F 73.6 °F 64% 29.95 in 10.0 mi SSE 8.1 mph - N/A   Clear
7:35 PM 86.0 °F 92.6 °F 72.3 °F 64% 29.96 in 10.0 mi SSE 8.1 mph - N/A   Clear
7:55 PM 84.7 °F 90.4 °F 71.6 °F 65% 29.96 in 10.0 mi SSE 6.9 mph - N/A   Clear
8:15 PM 83.3 °F 90.2 °F 74.3 °F 74% 29.96 in 10.0 mi South 8.1 mph - N/A   Clear
8:35 PM 82.4 °F 89.0 °F 74.5 °F 77% 29.97 in 10.0 mi SSE 3.5 mph - N/A   Clear
8:55 PM 81.7 °F 87.6 °F 74.1 °F 78% 29.97 in 10.0 mi SE 3.5 mph - N/A   Clear
9:15 PM 80.8 °F 86.1 °F 74.3 °F 81% 29.97 in 10.0 mi SSE 3.5 mph - N/A   Clear
9:35 PM 81.0 °F 86.0 °F 73.6 °F 78% 29.98 in 10.0 mi South 5.8 mph - N/A   Clear
9:55 PM 80.2 °F 84.7 °F 73.6 °F 80% 29.99 in 10.0 mi South 3.5 mph - N/A   Clear
10:15 PM 80.1 °F 84.5 °F 73.6 °F 81% 29.99 in 10.0 mi SSE 3.5 mph - N/A   Clear
10:35 PM 79.7 °F - 73.9 °F 82% 30.00 in 10.0 mi Calm Calm - N/A   Clear
10:55 PM 79.3 °F - 74.3 °F 84% 30.01 in 10.0 mi Calm Calm - N/A   Clear
11:15 PM 78.8 °F - 74.3 °F 86% 30.01 in 10.0 mi South 3.5 mph - N/A   Clear
11:35 PM 78.8 °F - 74.7 °F 87% 30.01 in 10.0 mi SSE 3.5 mph - N/A   Clear
11:55 PM 78.3 °F - 74.5 °F 88% 30.01 in 10.0 mi South 4.6 mph - N/A   Clear